Location: Bílinka
(49.3579°N, 14.3767°E)
Time: 00:36:19
(UTC+00:00)

Meteor PRIRODA - Pass Details

Date: 28 January 2023
Orbit: 473 x 489 km, 97.6° (Epoch: 30 March)

Event Time Altitude Azimuth Distance (km) Brightness Sun altitude
Rises 16:51:47 0° 174° (S) 2,515 7.3 -9.9°
Reaches altitude 10° 16:53:51 10° 178° (S) 1,640 6.4 -10.3°
Maximum altitude 16:57:20 59° 259° (W) 554 4.2 -10.8°
Drops below altitude 10° 17:00:50 10° 340° (NNW) 1,653 6.3 -11.3°
Sets 17:02:56 0° 344° (NNW) 2,537 7.2 -11.7°
